Weather History for CWGT - February, 2013

Change the Weather History Date:

Saturday, February 16, 2013

  Actual Average Record
Temperature  
Mean Temperature 46 °F -  
Max Temperature 49 °F - - ()
Min Temperature 42 °F - - ()
Degree Days  
Heating Degree Days 20    
Moisture  
Dew Point 39 °F    
Average Humidity 79    
Maximum Humidity 91    
Minimum Humidity 61    
Precipitation  
Precipitation 0.00 in - - ()
Sea Level Pressure  
Sea Level Pressure 30.09 in    
Wind  
Wind Speed 10 mph ()    
Max Wind Speed 22 mph    
Max Gust Speed -    
T = Trace of Precipitation, MM = Missing Value Source: Averaged Metar Reports

Daily Weather History Graph

Daily Weather History Graph

Search for Another Location

Airport or City:

Trip Planner

Search our weather history database for the weather conditions in past years. The results will help you decide how hot, cold, wet, or windy it might be!

Date:

Astronomy

Feb. 16, 2013 Rise Set
Actual Time 7:24 AM PST 5:39 PM PST
Civil Twilight 6:51 AM PST 6:12 PM PST
Nautical Twilight 6:14 AM PST 6:49 PM PST
Astronomical Twilight 5:37 AM PST 7:26 PM PST
Moon 10:00 AM PST (2/16) 12:24 AM PST (2/16)
Length of Visible Light 11h 20m
Length of Day
10h 15m
Waxing Crescent, 40% of the Moon is Illuminated
Feb 16
Waxing Crescent
Feb 17
First Quarter
Feb 25
Full
Mar 4
Last Quarter
Mar 11
New

Hourly Weather History & Observations

Time (PST) Temp. Windchill Dew Point Humidity Pressure Visibility Wind Dir Wind Speed Gust Speed Precip Events Conditions
12:00 AM 43.0 °F - 40.5 °F 91% 30.16 in - NNW 1.2 mph - N/A   Unknown
1:00 AM 43.0 °F - 40.5 °F 91% 30.14 in - West 1.2 mph - N/A   Unknown
2:00 AM 43.0 °F 41.3 °F 40.1 °F 90% 30.13 in - West 3.5 mph - N/A   Unknown
3:00 AM 43.0 °F 39.5 °F 40.3 °F 90% 30.11 in - SE 5.8 mph - N/A   Unknown
4:00 AM 43 °F - 40 °F 87% 30.08 in - SE 9.2 mph - -  
4:00 AM 42.8 °F 37.5 °F 40.5 °F 91% 30.08 in - SE 9.2 mph - N/A   Unknown
5:00 AM 42.8 °F 36.6 °F 39.6 °F 88% 30.06 in - SE 11.5 mph - N/A   Unknown
6:00 AM 42.8 °F 36.2 °F 39.9 °F 90% 30.07 in - SE 12.7 mph - N/A   Unknown
7:00 AM 43.3 °F 36.5 °F 40.8 °F 91% 30.06 in - SE 13.8 mph - N/A   Unknown
8:00 AM 43.3 °F 35.8 °F 40.8 °F 91% 30.06 in - ESE 16.1 mph - N/A   Unknown
9:00 AM 45.1 °F 39.1 °F 39.9 °F 82% 30.08 in - SE 12.7 mph - N/A   Unknown
10:00 AM 46 °F - 37 °F 63% 30.06 in - SW 17.3 mph - -  
10:00 AM 46.4 °F 39.5 °F 37.4 °F 71% 30.06 in - SW 17.3 mph - N/A   Unknown
11:00 AM 45.7 °F 40.2 °F 38.3 °F 75% 30.07 in - South 11.5 mph - N/A   Unknown
12:00 PM 47.3 °F - 36.0 °F 65% 30.04 in - SW 18.4 mph - N/A   Unknown
1:00 PM 46.2 °F 42.2 °F 38.3 °F 74% 30.05 in - South 8.1 mph - N/A   Unknown
2:00 PM 46.0 °F 41.0 °F 39.2 °F 77% 30.05 in - South 10.4 mph - N/A   Unknown
3:00 PM 47.1 °F - 38.1 °F 71% 30.04 in - WSW 18.4 mph - N/A   Unknown
4:00 PM 49 °F - 40 °F 63% 30.06 in - NW 11.5 mph - -  
5:00 PM 45.5 °F 38.3 °F 40.5 °F 83% 30.07 in - NW 17.3 mph - N/A   Unknown
6:00 PM 45.0 °F 37.9 °F 40.8 °F 85% 30.09 in - NW 16.1 mph - N/A   Unknown
7:00 PM 44.2 °F 36.2 °F 39.4 °F 83% 30.10 in - NW 19.6 mph - N/A   Unknown
8:00 PM 44.4 °F 36.4 °F 37.2 °F 76% 30.11 in - NW 19.6 mph - N/A   Unknown
9:00 PM 44.2 °F 36.7 °F 36.5 °F 74% 30.12 in - NNW 17.3 mph - N/A   Unknown
10:00 PM 44 °F - 35 °F 61% 30.13 in - NW 20.7 mph - -  
10:00 PM 43.9 °F 35.4 °F 34.9 °F 71% 30.13 in - NW 20.7 mph - N/A   Unknown
11:00 PM 43.7 °F 35.0 °F 34.9 °F 71% 30.14 in - NW 21.9 mph - N/A   Unknown